COSMOS 2242

Last updated on Sun Jun 21 2026 00:02:15 GMT+0000 (Coordinated Universal Time)

1 22626U 93024A 26171.45623240 .00001283 00000+0 10930-3 0 9998 2 22626 82.5178 168.4151 0015063 324.6163 35.4058 14.96911702795766
UTC large
Height (km)
Speed (km/s)
/
Latitude / Longitude
Inclination (degrees)
Orbital Period (minutes)
Azimuth
Elevation
Range (km)
Doppler Factor

Next 0 passes for location: London (51.5072 / 0.1276)

No passes found over London.
COSMOS 2242